Location: Ahstedt
(52.2048°N, 10.1060°E)
Time: 00:06:44
(UTC+00:00)

Cosmos 1500 Rocket - Pass Details

Date: 18 January 2026
Orbit: 597 x 623 km, 82.5° (Epoch: 17 February)

Event Time Altitude Azimuth Distance (km) Brightness Sun altitude
Rises 05:18:56 0° 209° (SSW) 2,863 6.8 -17.7°
Reaches altitude 10° 05:21:15 10° 217° (SW) 1,968 5.9 -17.4°
Maximum altitude 05:25:22 41° 288° (WNW) 905 3.9 -16.8°
Drops below altitude 10° 05:29:33 10° 359° (N) 1,997 6.0 -16.1°
Sets 05:31:55 0° 7° (N) 2,912 6.9 -15.8°
